[Iaude] MPEC M23: 2024 ME [a=2.05,e=0.49,i=2.3,H=21.7,PHA]

mpec at cfa.harvard.edu mpec at cfa.harvard.edu
Tue Jun 18 19:18:06 EDT 2024


M.P.E.C. 2024-M23                                 Issued 2024 June 18, 23:16 UT

     The Minor Planet Electronic Circulars contain information on unusual
         minor planets, routine data on comets and natural satellites,
         and occasional editorial announcements.  They are published
    on behalf of Division F of the International Astronomical Union by the
          Minor Planet Center, Smithsonian Astrophysical Observatory,
                          Cambridge, MA 02138, U.S.A.
			  
             Prepared using the Tamkin Foundation Computer Network

                              MPC at CFA.HARVARD.EDU
            URL https://www.minorplanetcenter.net/    ISSN 1523-6714

                                    2024 ME                                     


Observations:
     K24M00E* C2024 06 16.48923119 33 48.856-39 02 54.79         19.21wXEM023F51
     K24M00E  C2024 06 16.49635119 33 51.538-39 02 59.72         19.02wXEM023F51
     K24M00E  C2024 06 16.50356919 33 54.272-39 03 04.63         19.26wXEM023F51
     K24M00E |C2024 06 17.26007519 39 07.300-39 10 26.40         19.3 GVEM023807
     K24M00E |C2024 06 17.26227019 39 08.170-39 10 28.10         18.8 GVEM023807
     K24M00E |C2024 06 17.26448719 39 09.050-39 10 29.50         19.0 GVEM023807
     K24M00E |C2024 06 18.15029619 45 34.240-39 18 41.10         18.7 GVEM023807
     K24M00E |C2024 06 18.15360419 45 35.620-39 18 43.40         18.7 GVEM023807
     K24M00E |C2024 06 18.15690019 45 37.040-39 18 45.00         18.9 GVEM023807
     K24M00E  C2024 06 18.54503219 48 26.433-39 22 50.54         19.10GVEM023F51
     K24M00E  C2024 06 18.54584619 48 26.726-39 22 50.95         19.17GVEM023F51
     K24M00E KC2024 06 18.88587 19 51 05.97 -39 24 41.4          18.6 GVEM023M21
     K24M00E KC2024 06 18.90474 19 51 14.34 -39 24 52.5          18.3 GVEM023M21
     K24M00E KC2024 06 18.92917 19 51 24.99 -39 25 06.8          18.9 GVEM023M21

Observer details:
807 Cerro Tololo Observatory, La Serena.  Observers T. Linder, R. Holmes.
    0.61-m f/6.8 Ritchey-Chretien + CCD.
F51 Pan-STARRS 1, Haleakala.  Observers J. Herman, T. Lowe, P. Minguez, A.
    Schultz, I. Smith.  Measurers K. Chambers, T. de Boer, J. Fairlamb, H.
    Gao, M. Huber, C.-C. Lin, E. Magnier, Y. Ramanjooloo, R. Wainscoat, R.
    Weryk.  1.8-m Ritchey-Chretien + CCD.
M21 Schiaparelli Southern Observatory, Hakos.  Observers A. Aletti, F.
    Bellini, L. Buzzi, G. Galli.  Measurer G. Galli.  0.36-m f/8.4 reflector +
    CCD.

Orbital elements:
2024 ME                                             PHA, Earth MOID = 0.0434 AU
Epoch 2024 Mar. 31.0 TT = JDT 2460400.5                 MPC                     
M 319.59250              (2000.0)            P               Q                  
n   0.33628536     Peri.  322.43589     +0.68297464     +0.73041169             
a   2.0480037      Node   350.63411     -0.65984539     +0.61302688             
e   0.4876347      Incl.    2.34692     -0.31328853     +0.30115911             
P   2.93           H   21.74          G   0.15           U   8                  
Residuals in seconds of arc
240616 F51  0.0   0.0     240617 807  0.1-  0.1+    240618 F51  0.2-  0.1-
240616 F51  0.1-  0.0     240618 807  0.1+  0.0     240618 M21  0.2-  0.4-
240616 F51  0.0   0.0     240618 807  0.1-  0.1-    240618 M21  0.3+  0.1+
240617 807  0.2-  0.5+    240618 807  0.2+  0.4+    240618 M21  0.3-  0.3+
240617 807  0.2-  0.2+    240618 F51  0.4+  0.0

Ephemeris:
2024 ME                  a,e,i = 2.05, 0.49, 2                   q = 1.0493
Date    TT    R. A. (2000) Decl.     Delta      r    Elong.  Phase     V
2024 05 19    17 47 35.2 -32 11 44   0.3411  1.3173   149.7    22.8    21.1
...
2024 06 03    18 27 56.2 -35 42 43   0.2337  1.2285   153.8    21.4    20.1
...
2024 06 11    19 01 34.9 -37 47 57   0.1872  1.1856   153.3    22.6    19.6
...
2024 06 17    19 37 17.6 -39 07 37   0.1575  1.1562   151.0    25.2    19.2
2024 06 18    19 44 24.6 -39 17 21   0.1530  1.1516   150.5    25.8    19.1
2024 06 19    19 51 54.3 -39 25 29   0.1487  1.1471   149.8    26.4    19.1
...
2024 06 25    20 45 16.3 -39 22 52   0.1259  1.1215   144.6    31.6    18.8
...
2024 07 03    22 15 18.9 -35 17 13   0.1058  1.0926   133.8    42.2    18.7
...
2024 07 18    00 45 58.4 -14 48 30   0.1067  1.0574   109.9    64.6    19.3

A. U. Tomatic                (C) Copyright 2024 MPC           M.P.E.C. 2024-M23





More information about the Iaude mailing list